Temp
14 14 15 16 17 17 18 19 21 21 22 22 24 24 25 27 29 30 33 34 33 32 30 32 32 35 36 37 38 39 24 30 35 35 32 34 33 34 34 33 32 33 31 28 26
13 14 15 16 17 17 19 20 20 21 22 23 24 25 25 26 26 32 33 33 33 32 31 35 37 38 37 38 40 38 30 33 38 35 35 36 36 35 34 33 32 31 31 27 26
12 14 14 15 16 17 18 20 20 21 22 23 24 24 26 26 31 37 33 32 33 32 32 36 37 38 38 40 40 39 35 37 38 37 38 38 37 37 35 33 32 30 29 28 28
13 13 14 15 16 17 18 19 21 21 22 23 24 24 26 25 33 34 32 32 32 30 32 37 38 38 39 39 40 37 39 40 39 39 38 35 37 34 30 28 33 32 30 29 29
13 14 14 15 16 17 18 19 20 22 23 23 23 24 25 31 34 33 33 33 31 30 34 37 38 39 38 39 40 38 39 40 39 38 38 38 37 35 34 35 34 32 31 30 30
13 13 14 15 16 17 19 19 20 21 23 23 23 23 25 30 35 33 33 31 33 33 36 38 38 39 38 39 38 35 38 40 39 38 38 37 36 37 35 35 33 32 31 30 30
13 13 14 15 16 18 19 20 20 20 22 23 23 21 28 32 36 34 34 34 34 35 37 38 39 38 38 38 37 35 37 39 39 38 37 37 35 35 35 35 33 32 31 31 30
12 13 14 15 16 18 19 21 21 20 21 22 23 21 28 33 33 34 35 36 36 36 37 37 37 38 37 39 38 35 36 36 35 36 35 35 25 32 35 34 32 32 32 31 31
12 13 14 15 16 18 20 21 23 22 21 21 22 25 30 33 33 34 35 35 36 37 37 37 37 37 38 37 37 38 37 35 34 37 35 36 28 32 34 34 32 32 32 31 31
12 13 14 15 16 19 20 24 24 22 21 21 24 28 31 33 35 35 35 35 36 37 37 37 36 36 36 37 35 35 33 33 35 36 37 35 31 30 33 33 32 32 32 31 30
12 12 14 16 17 19 20 23 28 26 27 29 31 30 33 35 33 35 35 36 36 36 35 36 35 34 36 37 38 35 31 28 34 37 36 39 32 33 34 34 32 31 33 32 31
12 12 13 15 18 19 20 25 23 23 23 28 29 30 31 32 32 34 35 34 35 34 35 35 35 36 37 38 37 34 28 31 29 37 40 39 37 35 34 34 33 32 32 33 31
12 12 14 15 18 20 23 22 22 23 24 27 30 31 32 33 32 33 35 35 34 34 35 35 36 38 37 37 37 38 34 35 37 32 40 39 39 35 35 36 34 33 32 33 33
12 12 13 14 18 20 24 22 23 23 23 28 31 32 33 33 32 34 35 35 35 34 35 36 37 37 37 37 38 37 39 38 37 38 38 40 37 38 37 36 35 34 33 32 33
12 12 13 15 14 21 21 22 22 24 23 32 33 32 34 32 33 34 34 34 34 34 35 35 36 37 37 38 39 38 40 40 40 39 39 39 37 38 37 36 36 36 34 34 34
12 13 12 16 17 20 21 21 23 23 23 30 32 31 31 32 33 34 34 35 35 34 35 36 38 38 38 39 39 40 39 39 40 39 37 39 39 39 38 38 37 37 37 35 34
11 13 12 12 18 20 21 23 23 23 29 29 31 32 31 31 32 33 33 33 32 31 32 35 36 38 39 38 39 39 38 36 36 36 37 40 39 38 36 33 33 38 38 37 36
11 14 15 16 18 19 21 22 21 26 28 30 30 31 30 31 32 32 32 33 33 33 34 33 33 37 39 38 38 38 38 37 34 36 38 39 38 38 30 27 31 33 39 38 37
10 15 19 19 19 19 21 20 22 25 28 26 27 28 29 30 31 32 32 32 34 34 33 34 34 38 38 39 39 38 38 40 38 39 37 32 37 36 35 35 40 40 39 38 38
9 14 18 20 20 20 20 19 23 26 27 25 24 27 27 29 30 30 31 33 33 35 35 34 33 37 39 39 40 39 40 37 38 35 35 29 29 33 34 37 41 41 39 38 37
11 19 21 20 20 20 19 21 24 25 25 23 23 24 26 27 29 30 31 33 33 34 36 35 34 35 38 38 37 38 38 39 39 39 37 35 33 33 35 36 42 42 40 38 37
15 19 20 20 19 21 21 22 17 24 24 23 23 23 24 26 26 27 29 30 30 30 31 34 34 34 35 39 39 39 38 38 38 36 38 37 34 31 33 35 41 42 39 38 38
17 20 21 20 19 21 22 22 23 22 22 22 22 23 24 24 23 25 27 30 29 29 26 28 31 32 34 37 39 38 38 39 39 39 37 37 35 31 32 37 42 42 39 38 37
16 19 21 21 21 20 20 19 18 22 21 22 22 23 23 23 24 24 26 28 28 28 24 26 28 30 33 35 38 37 37 39 39 38 38 38 38 38 35 32 41 40 39 38 37
16 19 19 19 20 20 20 20 20 20 22 22 21 21 21 21 23 23 25 26 27 27 27 28 27 30 33 35 37 38 37 38 38 39 38 39 40 38 34 27 37 39 38 37 36
15 16 17 18 19 19 18 19 19 20 20 20 20 21 21 21 21 21 20 24 24 26 26 28 27 29 30 33 35 37 38 38 38 39 39 39 37 35 30 32 35 39 38 36 36
14 14 15 16 18 18 19 18 19 20 20 20 20 19 20 20 20 20 21 22 22 23 23 24 26 27 28 32 33 34 38 38 38 39 39 38 35 32 30 26 30 39 38 37 37
Height
810 806 802 798 795 791 787 783 779 775 772 769 765 763 759 753 747 746 742 736 736 736 737 736 732 726 721 716 712 708 789 770 740 742 750 731 736 734 734 744 750 750 757 775 789
810 806 802 798 795 791 786 782 779 774 769 766 764 762 758 754 748 741 739 736 735 735 736 730 722 717 717 708 702 716 757 743 713 720 726 722 723 731 742 750 754 756 760 777 788
810 806 802 798 794 790 785 781 778 774 770 765 762 760 758 754 747 729 733 734 735 735 735 728 724 718 719 701 698 706 738 718 706 706 707 715 725 722 738 753 755 765 772 780 783
810 806 802 797 793 789 785 780 776 772 769 765 762 759 758 757 761 731 732 733 735 736 737 728 721 721 717 714 698 723 704 699 702 700 710 727 720 741 748 764 746 759 772 779 783
810 806 801 796 791 787 783 779 775 770 767 764 762 760 758 752 738 732 732 733 735 737 734 725 722 717 723 711 704 717 706 701 706 708 713 715 723 734 743 740 747 759 769 775 782
810 805 800 794 789 784 780 776 772 769 765 762 761 760 760 756 732 730 733 733 734 735 730 723 719 715 722 715 719 725 713 704 705 715 716 724 734 730 741 738 750 760 768 776 783
810 804 799 793 787 781 776 772 769 765 763 761 758 759 754 737 728 729 731 731 732 730 724 721 718 721 717 721 715 717 726 710 709 713 722 719 745 746 740 741 754 761 768 774 781
810 804 798 791 785 778 772 768 764 762 760 759 757 759 746 729 729 729 727 727 727 727 725 724 724 722 724 713 716 736 731 738 727 720 725 729 806 758 739 744 757 759 764 770 775
809 804 798 791 783 776 769 763 759 757 757 757 757 754 738 723 724 723 725 725 723 723 723 724 724 727 723 733 736 720 738 746 749 716 732 726 778 754 739 743 755 757 760 769 773
809 802 796 790 783 775 766 757 753 753 754 757 753 752 727 718 714 717 720 720 720 720 721 723 727 737 733 737 757 745 758 754 750 724 720 728 745 749 737 742 750 753 756 766 773
809 802 796 789 783 775 766 754 749 752 748 739 729 729 715 710 714 713 712 713 716 721 734 721 740 748 734 722 719 730 756 780 743 719 720 710 737 735 730 737 746 752 751 759 766
808 802 796 789 781 776 771 767 771 772 760 739 730 725 720 716 719 713 713 720 719 732 723 732 737 722 716 714 720 733 771 764 758 706 702 707 719 717 725 728 732 741 748 749 761
808 802 795 787 780 775 772 774 772 769 762 730 716 712 711 714 716 713 706 707 717 726 721 729 720 708 715 717 722 717 740 736 729 727 695 703 716 726 719 718 726 733 740 742 746
808 803 796 786 783 778 770 774 771 769 765 723 701 696 697 702 708 703 701 703 709 717 714 713 701 707 710 716 711 726 700 704 718 713 729 694 745 718 713 718 717 725 733 740 743
807 802 797 794 790 778 778 775 772 767 775 697 681 688 687 699 697 695 693 697 710 709 707 710 706 706 710 703 698 712 687 692 693 704 709 707 727 708 699 712 711 710 720 729 735
805 801 798 792 789 782 778 775 771 775 768 713 689 698 701 693 694 685 689 691 689 704 696 698 677 686 690 686 684 686 694 693 692 703 732 706 707 701 698 699 699 701 705 715 726
804 799 796 795 785 781 779 772 775 771 713 713 701 693 696 699 698 693 697 701 712 726 722 701 694 677 675 692 680 689 706 734 743 739 735 689 701 702 691 702 713 694 696 703 712
801 794 790 789 785 783 779 775 779 737 724 700 699 692 705 694 691 691 700 698 692 698 706 718 720 686 669 681 693 691 698 720 755 740 720 689 713 699 702 710 694 696 682 693 703
798 790 781 779 782 782 778 776 760 741 723 728 720 717 714 704 698 693 691 695 683 688 709 706 705 665 667 662 672 689 700 681 705 692 717 744 704 705 692 685 662 670 676 687 696
801 791 779 775 780 779 777 772 753 733 729 736 747 723 724 710 704 703 699 683 687 672 678 690 707 670 660 660 658 672 669 706 695 735 742 761 756 733 711 690 662 661 671 679 688
799 779 770 775 777 775 774 760 746 734 737 749 750 743 729 721 706 702 695 683 676 676 667 681 691 682 659 668 677 679 683 680 681 688 715 740 738 692 695 686 658 654 659 670 682
796 779 770 775 776 764 762 751 758 742 742 749 751 748 739 726 722 714 702 694 692 691 695 675 681 692 675 645 647 658 675 676 694 706 686 698 721 686 688 676 646 646 653 664 674
790 772 766 772 772 757 749 751 747 750 752 750 750 743 738 739 743 726 711 696 698 703 716 707 690 701 687 657 642 662 660 663 665 670 694 708 710 692 685 669 637 644 652 661 672
793 768 761 762 759 761 761 764 768 748 753 752 750 743 742 742 736 737 724 703 702 705 712 711 703 695 689 673 649 667 665 659 664 682 684 683 683 677 678 680 648 646 654 662 671
792 774 771 767 761 761 757 758 760 756 746 748 753 753 751 750 742 738 728 720 709 705 707 706 714 695 676 661 648 649 660 660 663 663 677 667 664 662 671 704 667 648 657 665 673
797 791 784 773 766 766 767 767 764 755 754 752 755 747 745 749 748 749 753 732 728 712 711 704 711 697 690 669 656 652 644 652 653 655 656 655 670 659 665 659 669 654 660 667 673
802 798 795 782 769 765 762 768 762 757 755 754 755 758 756 756 755 753 749 743 738 737 732 727 717 711 706 678 669 669 640 643 650 643 647 665 668 664 678 696 678 657 659 664 668
Wind_Speed
25 25 25 24 24 26 25 24 24 24 23 23 23 23 24 26 27 13 11 3 4 5 6 8 15 15 17 16 16 11 4 7 7 9 8 14 20 10 15 17 15 13 15 28 31
26 26 26 25 26 26 24 24 24 23 24 23 22 22 22 24 21 19 8 6 6 7 7 12 13 7 12 16 7 5 7 12 9 15 15 15 16 12 14 15 9 16 26 36 31
26 27 27 27 27 27 25 23 23 23 22 23 22 21 19 22 10 9 10 7 7 10 14 14 16 15 15 18 10 5 4 11 13 12 8 17 12 14 15 11 18 18 25 29 29
28 28 28 29 29 28 27 23 23 22 21 21 19 19 16 10 5 5 7 7 8 10 12 15 11 16 17 7 3 6 9 14 11 11 9 14 9 21 19 5 20 22 25 23 23
28 28 29 30 30 30 27 24 23 21 20 19 16 15 8 8 17 10 10 9 9 8 12 14 15 15 13 11 16 2 5 8 8 13 11 10 10 19 17 15 21 22 24 23 20
29 30 31 31 32 31 27 24 23 21 19 15 14 10 6 14 7 9 10 11 12 13 15 16 13 13 16 18 5 11 17 8 12 11 5 12 9 9 10 16 20 20 21 21 20
31 33 33 33 33 31 27 25 23 22 14 12 13 5 11 20 9 13 13 15 16 19 16 17 15 16 18 14 5 16 17 8 10 11 10 8 9 7 12 16 17 20 20 21 22
30 32 33 35 35 31 27 25 20 20 10 9 8 6 9 15 27 23 12 17 19 20 20 18 17 18 17 19 11 15 25 8 9 10 9 12 4 18 11 16 17 19 20 18 21
31 32 33 33 34 30 29 28 19 17 10 7 4 9 14 5 19 22 27 24 21 21 19 18 16 17 19 16 17 20 8 15 7 16 10 11 15 9 13 15 17 18 20 15 16
32 34 35 33 32 26 30 24 19 11 7 8 16 9 19 15 20 22 23 25 19 19 20 22 15 16 16 15 17 5 9 6 13 8 18 14 14 14 18 20 19 18 21 18 16
32 34 35 33 29 20 30 20 3 5 10 14 7 13 23 14 3 10 12 21 23 19 22 21 17 18 22 21 18 7 8 11 21 18 22 6 19 24 23 20 21 19 19 22 21
31 32 34 32 23 15 17 11 9 7 12 18 22 24 27 28 10 14 21 18 19 22 24 21 23 24 23 24 15 15 7 25 19 14 12 6 18 27 25 23 23 24 21 24 23
30 32 34 32 17 14 8 10 11 12 7 17 23 22 24 24 23 20 16 22 22 24 27 26 27 26 24 24 23 20 22 27 22 20 15 9 11 24 25 21 23 21 22 21 25
29 31 32 35 6 20 8 13 14 11 6 17 23 20 26 21 28 27 27 22 23 25 27 26 28 27 26 26 23 22 24 25 16 11 12 13 9 3 22 23 24 24 22 23 22
28 29 30 20 15 9 13 16 13 10 7 15 8 8 6 25 16 23 31 26 26 24 22 25 29 28 29 27 23 22 24 19 17 10 14 12 10 13 23 23 23 25 25 24 23
27 26 29 12 12 14 15 15 10 6 11 10 7 9 14 17 24 25 24 27 20 24 25 28 23 29 28 26 24 22 25 23 15 12 14 18 15 13 12 15 22 22 24 25 25
28 27 27 14 9 15 15 10 5 8 9 17 19 13 12 18 19 22 22 25 23 19 24 25 28 28 28 27 27 23 22 14 13 14 13 18 16 6 16 6 16 22 23 23 23
30 25 18 14 13 13 12 8 11 12 19 16 8 3 5 7 11 23 24 21 27 28 17 21 21 28 21 31 25 26 23 15 17 15 16 7 10 1 21 18 32 28 23 23 23
30 18 16 13 6 8 7 10 13 13 13 10 16 10 11 15 19 11 19 24 21 27 24 19 27 21 29 25 27 25 21 23 25 21 6 8 6 9 21 20 17 21 24 23 22
23 19 20 8 5 9 8 15 20 20 13 6 14 14 16 20 17 14 16 17 26 24 27 26 22 27 24 28 26 29 18 20 17 23 11 3 4 13 11 16 17 16 25 23 22
13 5 11 4 4 6 10 15 18 20 3 7 13 17 17 18 18 17 18 17 4 25 23 26 25 25 25 27 26 19 21 20 22 17 14 12 6 10 16 20 17 14 24 24 23
14 6 10 4 8 7 11 17 4 16 5 8 11 17 18 17 15 17 14 5 13 14 11 15 22 21 30 26 29 26 26 26 16 19 15 8 5 1 17 24 14 13 24 23 22
6 9 3 3 8 7 6 12 8 10 12 11 12 14 16 14 14 14 20 6 10 11 10 12 9 16 25 22 25 29 27 26 25 17 19 13 3 5 21 24 11 16 22 21 21
6 4 5 7 8 9 9 6 13 13 10 12 15 14 13 15 17 16 16 10 6 10 10 8 11 15 17 21 18 25 28 27 26 17 16 18 13 20 7 17 8 18 20 20 18
5 4 6 7 3 9 11 8 10 12 9 9 11 15 15 14 14 14 18 18 16 7 7 9 15 17 23 26 26 25 24 30 27 23 22 19 18 14 17 19 18 17 17 19 17
4 5 8 11 13 9 8 11 15 13 12 4 11 14 11 12 9 14 16 16 13 14 8 13 14 16 24 24 28 24 29 29 28 27 25 23 8 9 11 17 11 12 17 19 18
8 9 7 13 12 10 8 7 12 10 5 11 15 9 9 14 13 14 14 14 15 13 12 13 11 12 20 19 24 25 22 27 24 26 24 23 15 15 12 13 25 15 17 19 18
Wind_Direction
15 11 9 6 2 357 350 347 343 338 337 335 333 335 333 327 322 304 269 154 216 252 203 217 234 247 260 258 249 235 14 262 121 113 160 154 121 132 150 132 155 188 141 148 157
11 9 6 2 359 355 349 343 341 336 333 331 332 331 331 330 320 289 233 202 233 217 218 236 251 268 274 258 262 135 157 263 102 128 170 135 106 128 125 135 146 85 118 142 159
7 6 3 359 355 353 348 342 338 335 330 328 328 328 329 331 291 261 200 207 211 203 246 283 286 281 276 279 264 42 236 251 103 165 195 119 120 154 144 152 131 129 141 152 157
4 2 1 356 353 349 345 340 336 331 328 325 323 321 323 321 275 108 142 163 180 199 257 277 262 267 280 305 76 11 290 80 84 68 115 67 143 94 80 322 128 134 149 158 154
2 359 357 354 350 347 343 338 335 328 325 322 319 319 332 240 249 175 156 163 181 215 254 273 290 297 329 337 313 79 298 99 94 81 77 159 114 130 132 141 130 143 154 158 165
359 357 355 351 347 344 339 335 330 326 321 319 314 309 265 257 211 165 169 178 209 226 259 262 280 323 300 289 333 177 288 120 136 101 180 116 82 147 124 134 132 152 161 158 173
356 354 352 349 345 341 336 331 325 323 314 317 299 267 262 242 281 185 204 214 227 246 254 264 306 318 313 313 44 313 266 166 166 155 148 88 114 75 142 148 147 161 171 165 181
354 351 349 347 343 338 333 327 316 317 296 315 281 217 257 256 250 257 232 239 240 247 259 275 291 287 280 287 289 215 242 226 4 339 164 109 44 286 168 158 158 175 170 174 176
353 350 347 345 342 338 330 325 306 295 275 277 256 226 258 233 229 233 236 237 243 241 250 260 272 274 282 261 261 251 200 153 222 254 250 148 165 224 214 165 169 181 166 173 170
350 349 345 344 342 338 333 326 297 272 262 246 259 258 248 252 229 227 234 240 240 246 247 243 247 257 255 250 255 313 32 346 213 222 219 184 188 190 202 172 172 184 169 172 172
348 348 344 341 341 341 337 332 304 172 248 262 268 229 295 212 341 246 232 222 222 236 241 241 230 239 247 248 256 356 15 207 292 264 211 210 172 186 179 177 169 183 188 172 181
346 345 342 339 333 330 338 16 26 321 299 281 269 268 261 275 263 250 227 228 219 227 228 237 235 236 247 253 224 155 76 272 237 293 198 210 179 171 180 182 174 176 193 177 179
344 344 342 336 323 325 326 14 339 325 265 281 251 244 236 240 241 247 224 227 221 225 224 227 231 237 236 248 249 247 168 242 268 182 252 230 244 153 180 185 171 182 184 199 183
340 343 342 337 317 327 313 347 332 325 279 274 236 231 227 224 235 231 247 239 224 238 225 236 232 240 232 235 244 249 209 228 229 258 253 193 248 295 179 183 180 177 185 190 194
336 339 338 339 297 312 341 327 321 280 284 323 102 86 222 213 219 220 222 240 228 230 242 230 234 231 239 236 231 250 256 265 252 250 273 222 227 209 222 182 183 184 179 189 190
331 331 334 338 277 279 325 318 290 236 246 256 192 221 222 225 224 251 203 223 242 234 242 243 246 229 236 239 233 239 252 258 254 274 249 252 249 245 184 188 178 190 182 180 184
325 322 315 286 274 330 319 288 235 240 284 237 255 218 227 213 223 223 238 204 216 219 232 241 233 248 226 233 236 220 238 241 232 237 244 249 249 51 143 38 303 185 186 182 177
322 317 291 263 274 291 296 255 241 255 237 294 316 295 259 270 242 203 223 231 210 229 223 225 230 226 237 228 228 229 229 238 230 232 244 26 301 39 124 128 237 252 180 178 182
327 318 269 233 249 285 264 236 240 257 302 2 326 286 245 255 262 244 219 228 219 214 237 226 232 238 224 233 227 234 225 235 250 251 195 344 301 187 187 215 227 205 170 175 181
320 303 266 146 266 263 255 257 277 282 314 303 289 284 246 253 253 224 253 232 235 232 215 245 258 229 228 230 223 229 231 226 239 251 243 155 319 259 260 261 214 169 168 170 172
300 261 124 211 259 245 249 262 253 249 348 296 283 286 288 287 288 294 215 250 318 240 233 219 248 256 228 208 224 212 233 226 239 242 251 202 202 243 276 278 229 176 167 163 169
272 280 130 263 260 237 253 245 303 285 340 283 263 275 284 294 299 296 275 6 12 338 295 278 238 243 254 220 211 219 219 234 239 239 259 272 223 93 305 278 225 175 150 157 165
269 269 224 234 255 246 319 317 271 259 272 272 270 262 274 274 281 284 287 323 2 332 24 345 252 237 245 249 205 213 222 225 238 231 242 250 180 141 263 280 163 165 148 153 163
287 278 206 203 245 286 281 281 264 242 239 280 294 295 278 248 253 270 283 294 2 292 7 314 267 266 238 240 212 202 221 227 231 235 234 242 183 177 78 315 225 143 145 151 164
252 308 1 295 333 310 321 307 286 287 248 209 251 254 269 273 269 253 273 287 300 298 277 267 265 267 264 265 255 207 209 230 229 232 241 242 232 175 143 230 275 141 149 154 167
297 342 333 289 287 276 260 257 264 263 319 267 272 287 326 258 321 323 351 304 300 326 357 307 275 265 266 269 264 263 205 216 233 230 240 250 118 92 41 349 309 163 159 161 174
322 312 296 289 271 262 265 297 266 306 261 309 331 299 262 336 355 322 306 299 305 321 319 310 306 280 261 259 266 263 238 204 221 236 230 237 160 118 92 309 278 188 170 168 177